Location: Martley
(52.2333°N, 2.3667°W)
Time: 18:05:05
(UTC+00:00)

FENGYUN 3A - Pass Details

Date: 11 December 2019
Orbit: 823 x 837 km, 98.4° (Epoch: 26 January)

Event Time Altitude Azimuth Distance (km) Brightness Sun altitude
Rises 06:40:07 0° 10° (N) 3,384 6.7 -12.5°
Reaches altitude 10° 06:42:35 10° 4° (N) 2,444 5.9 -12.1°
Maximum altitude 06:47:37 41° 296° (WNW) 1,189 4.0 -11.4°
Drops below altitude 10° 06:52:36 10° 228° (SW) 2,423 5.9 -10.7°
Sets 06:55:03 0° 221° (SW) 3,351 6.6 -10.4°
